Simultaneous Nadir Overpasses (SNOs) Predictions

Prediction of SNOs between NPP and TERRA Satellite Orbit:

Table of predicted SNOs for the next 14.0 days since TLE Epoch: 7/5/2025
Index Date (NPP) Time (NPP) Lat,Lon (NPP) SZA (NPP ) Date (TERRA) Time (TERRA) Lat,Lon (TERRA) SZA (TERRA ) Distance(km) Time Diff (sec)
1 07/06/2025 18:19:55 74.08,-105.74 51.80 07/06/2025 18:20:32 74.09,-105.69 51.79 1.79 37
2 07/06/2025 19:10:37 -73.99, 61.80 128.30 07/06/2025 19:09:54 -73.97, 61.71 128.31 3.53 43
3 07/09/2025 04:41:35 -74.08, -81.14 127.93 07/09/2025 04:42:16 -74.07, -81.22 127.94 2.61 41
4 07/09/2025 05:32:20 74.03, 86.30 52.02 07/09/2025 05:31:36 74.01, 86.30 52.01 2.35 44
5 07/11/2025 15:03:18 74.12, -56.65 52.44 07/11/2025 15:03:58 74.09, -56.66 52.40 3.08 40
6 07/11/2025 15:54:00 -74.03, 110.89 127.66 07/11/2025 15:53:19 -74.02, 110.86 127.66 1.22 41
7 07/14/2025 01:24:58 -74.12, -32.07 127.21 07/14/2025 01:25:40 -74.14, -32.02 127.20 2.80 42
8 07/14/2025 02:15:42 74.02, 135.50 52.69 07/14/2025 02:15:01 74.02, 135.39 52.71 3.33 41
9 07/16/2025 11:46:40 74.12, -7.47 53.18 07/16/2025 11:47:22 74.13, -7.52 53.18 2.16 42
10 07/16/2025 12:37:23 -74.08, 159.95 126.86 07/16/2025 12:36:43 -74.06, 160.00 126.87 2.23 40
11 07/18/2025 22:08:19 -74.13, 17.09 126.39 07/18/2025 22:09:03 -74.15, 17.06 126.37 3.30 44
12 07/18/2025 22:59:04 74.07,-175.46 53.56 07/18/2025 22:58:23 74.09,-175.42 53.58 1.86 41



Historial Predications of SNOs between NPP and TERRA
